Location: Campillo
(40.8621°N, 4.2488°W)
Time: 20:06:23
(UTC+00:00)

Cosmos 1633 Rocket - Pass Details

Date: 25 September 2021
Orbit: 607 x 623 km, 82.5° (Epoch: 28 October)

Event Time Altitude Azimuth Distance (km) Brightness Sun altitude
Rises 03:43:03 0° 350° (N) 2,913 6.7 -27.3°
Reaches altitude 10° 03:45:18 10° 348° (NNW) 2,001 5.8 -27.0°
Enters shadow 03:46:41 20° 346° (NNW) 1,459 5.0 -26.7°
